sat.trackr.live / text

‹ back to catalog

STARLINK-31394

NORAD 59185 · 2024-045H

PAYLOAD ACTIVE UNKNOWN

§ Identity

Operator
Country
US
Launch date
2024-03-10
Launch site
AFETR
Launch vehicle
Mass (kg)
RCS (m²)

Purposes: comms

External: N2YO · Heavens-Above · Gunter

§ Orbital elements

Epoch: 2026-09-20T03:41:14.145216Z

Period
94.27 min
Inclination
43.0030°
Eccentricity
0.0001335
Mean motion
15.27579328 rev/d
Perigee alt
482.1 km
Apogee alt
484.0 km
Semi-major
6,861.2 km
B*
2.4576e-5
RAAN
63.8153°
Arg perigee
272.7891°
Mean anomaly
87.2808°
Rev number
14,302

§ Raw data

STARLINK-313941 59185U 24045H   26263.15363594  .00000414  00000+0  24576-4 0  99942 59185  43.0030  63.8153 0001335 272.7891  87.2808 15.27579328143026

JSON: /api/v1/satellites/59185 · /tle

For live sub-satellite position, see the globe view (requires WebGL).

§ Visibility from observer

Set your observer location to see the next 7 days of passes ≥ 10°. The values pass through the URL so the page stays shareable.

No JS? Fill the form by hand. The geolocation button needs JavaScript.